Reflectivity
25 21 -14 -19 -15 -20 -20 -20 -20 -20 -20 -20 -20 -20 -20 -20 -20 -20 -20 -20 -20 -20 -20 -20 -20 -20 -20 -20 -20 -20 -20 -20 -20 -16 -15 -20 -7 4
-13 23 18 -6 16 -20 -20 -20 -20 -20 -20 -18 -14 -20 -20 -20 -20 -20 -20 -20 -20 -20 -20 -20 -20 -20 -20 -20 -20 -20 -20 -20 -20 -20 -20 -20 -20 -15
29 23 25 18 -20 9 -20 -20 -20 -20 -20 -4 -7 -20 -20 -20 -20 -20 -20 -20 -20 -20 -20 -20 -20 -20 -20 -20 -20 -20 -20 -20 -20 -20 -20 -20 -20 -20
21 9 20 23 18 12 13 -20 -20 -20 -20 -20 -20 -20 -20 -20 -20 -20 -20 -20 -20 -20 -20 -20 -20 -20 -20 -20 -20 -20 -20 -20 -20 -20 -20 -20 -20 -20
38 25 2 8 20 11 15 15 -20 -20 -20 -20 -20 -20 -20 -20 -20 -20 -20 -20 -20 -20 -20 -20 -20 -20 -20 -20 -20 -20 -20 -20 -20 -20 -20 -20 -20 -20
27 38 18 14 27 18 15 20 15 -20 -20 -20 -20 -20 -20 -20 -20 -20 -20 -20 -20 -20 -20 -20 -20 -20 -20 -20 -20 -20 -20 -20 -20 -20 -20 -20 -20 -20
35 37 44 32 35 23 -9 19 23 -2 -20 -20 -20 -20 -20 -20 -20 -20 -20 -20 -20 -20 -20 -20 -20 -20 -20 -20 -20 -20 -20 -20 -20 -20 -20 -20 -20 -20
30 30 45 37 34 29 19 8 14 20 -20 -20 -20 -20 -20 -20 -20 -20 -20 -20 -20 -20 -20 -20 -20 -20 -20 -20 -20 -19 -20 -20 -20 -20 -20 -20 -20 -20
25 35 30 22 33 40 32 22 10 18 18 -17 -20 -20 -20 -20 -20 -20 -20 -20 -20 -20 -20 -20 -20 -20 -20 -20 -4 17 -19 -20 -20 -20 -20 -20 -20 -20
14 20 18 23 38 35 15 31 34 10 -10 -15 -20 -20 -20 -20 -20 -20 -20 -20 -20 -10 -20 -20 -1 -20 -20 -20 -5 -2 -20 -20 -20 -20 -20 -20 -20 -20
7 18 16 26 27 31 36 32 38 36 20 18 15 13 3 -19 -20 -20 -20 -20 14 13 -14 -20 13 16 10 9 -20 -20 -20 -20 -20 -20 -20 -20 -20 -20
4 9 21 19 26 27 25 31 35 29 5 10 10 11 9 3 6 -7 -20 -20 -13 11 13 -18 12 12 22 11 6 -20 -20 -20 -20 -20 -20 -20 -20 -20
-4 5 17 25 16 11 17 26 38 34 18 15 7 3 2 -20 -20 -16 -20 -20 -20 -16 -4 -18 15 12 14 16 5 -3 -20 -20 -20 -20 -20 -20 -20 -19
-17 -20 -10 17 11 -18 4 14 22 18 23 22 7 9 11 8 -20 -20 -20 9 -18 -20 -20 -9 11 -15 -15 10 8 -12 -20 -20 -20 -20 -20 -20 -20 -20
-20 -20 -20 -19 -19 -19 -16 1 12 10 10 15 18 30 8 1 19 -18 -9 -17 -17 -20 -4 -20 -18 -1 -16 -14 7 -0 -19 -7 -20 -20 -20 -20 -20 -20
-15 -17 -19 -20 -20 -20 -9 -10 -15 -4 -10 -19 17 11 -1 11 20 8 20 28 -0 -19 -9 -10 -13 -4 11 2 11 -17 -20 -20 -20 -20 -20 -20 -20 -20
-19 -20 -20 -20 -20 -20 -20 -20 -20 -16 4 -6 1 16 21 19 18 29 33 28 20 21 22 21 10 18 -9 -12 -0 -11 -20 -20 -20 -6 -17 -20 -18 -19
-20 -20 -20 -20 -20 -20 -20 -20 -20 -20 -6 -15 10 25 19 26 21 28 33 23 18 25 3 16 26 21 19 11 17 12 1 -17 11 5 22 11 -11 4
-20 -20 -5 -20 -19 -18 -20 -20 -20 -20 -20 -20 2 7 7 27 26 26 25 26 27 26 26 30 20 28 27 4 10 17 25 25 9 17 14 15 17 -1
-20 -14 -19 -12 -2 -1 -10 -13 -18 -20 -20 -20 -20 -20 -12 -4 -1 5 14 21 22 24 23 27 23 29 28 4 18 15 26 26 9 10 20 20 13 25
-19 -10 -10 -2 -2 -1 -12 -10 -12 -4 1 -20 -20 -20 -20 -20 -20 -18 -16 15 20 17 16 22 29 31 28 19 4 13 23 28 26 12 4 17 22 22
-19 0 -2 -3 -1 -2 -2 1 -3 -4 -19 -17 -20 -20 -20 -20 -20 -20 -20 -19 0 9 23 26 31 34 28 22 19 17 20 26 31 24 26 18 25 18
-20 -20 -20 -20 -3 -14 -20 -20 -5 -20 -3 -17 -15 -12 -11 -20 -20 -20 -20 -20 -20 -5 5 7 19 29 33 33 33 29 25 25 25 27 24 27 22 24
Wind_Speed
19 19 16 14 13 10 9 11 9 9 12 8 6 15 12 11 12 13 15 17 20 19 19 19 18 18 17 18 18 18 19 20 19 19 19 19 19 18
17 20 19 15 14 10 10 10 7 7 7 10 11 6 14 11 12 14 14 12 18 20 20 21 21 21 20 20 21 20 20 19 19 18 19 19 19 19
21 22 23 21 14 12 9 10 7 7 7 3 4 5 11 13 11 12 11 12 10 20 22 22 21 21 21 21 21 21 21 21 20 20 20 21 22 21
17 25 23 18 20 15 12 14 13 10 8 7 4 5 9 14 13 13 11 10 11 16 21 21 22 23 23 23 24 22 22 22 20 22 21 22 21 21
11 25 24 23 22 15 15 15 12 10 11 6 4 3 3 7 7 6 11 11 10 12 19 21 22 22 22 22 23 24 25 24 24 23 20 20 18 20
2 10 21 21 23 21 16 19 16 13 11 11 3 4 3 3 6 8 7 7 10 7 9 12 17 20 22 23 24 25 25 27 26 24 22 21 20 20
9 8 12 12 13 13 16 18 18 14 10 12 8 3 4 4 13 7 9 6 8 5 6 7 7 8 11 17 18 22 24 26 26 26 27 24 23 23
9 10 10 15 13 12 13 18 22 20 17 12 13 11 10 9 8 10 10 5 5 7 8 6 8 9 9 9 20 22 27 28 26 27 26 26 26 25
13 11 8 9 12 10 8 8 12 23 24 17 16 14 13 11 12 10 10 9 7 3 10 7 7 10 9 10 19 23 24 25 27 28 27 26 26 25
14 11 9 12 14 14 9 5 7 12 16 13 17 16 14 13 13 13 13 10 2 1 6 8 4 8 6 10 17 22 24 25 26 27 27 27 26 25
11 10 12 10 16 20 9 8 6 4 5 9 9 14 14 13 14 8 5 5 4 5 4 4 4 3 1 3 7 18 23 23 25 25 25 26 25 24
8 9 11 13 14 14 8 6 5 7 7 8 4 8 5 11 17 16 11 11 8 1 5 7 2 4 3 3 4 5 8 16 21 23 24 25 24 10
7 7 6 14 12 12 10 7 6 7 3 2 3 5 11 9 6 10 14 11 11 8 6 9 5 3 3 3 2 3 8 6 9 9 18 22 21 21
6 5 7 13 11 10 6 9 10 7 5 5 3 3 3 5 10 10 13 11 10 15 8 13 5 8 6 1 3 1 3 4 6 8 8 10 17 22
4 8 12 13 11 6 10 9 5 4 3 3 3 2 2 4 4 3 4 2 3 0 5 16 6 7 7 7 5 5 4 4 6 6 5 8 9 8
6 6 6 7 5 5 4 5 4 3 3 3 3 2 2 3 3 2 3 3 1 1 3 1 7 7 4 7 7 3 5 5 3 7 6 4 4 7
5 4 5 7 7 7 6 6 4 4 4 3 3 3 2 4 4 4 2 2 1 1 1 2 3 3 2 5 3 8 4 2 3 4 4 3 4 7
5 7 7 6 6 6 6 5 3 6 4 3 2 3 3 2 3 3 1 2 2 3 2 1 2 2 2 2 2 3 2 3 3 4 1 3 2 4
8 8 7 7 6 6 5 5 5 6 4 3 3 3 2 2 2 1 1 2 2 3 1 1 2 1 2 3 1 9 3 3 5 3 3 2 2 1
9 7 7 7 7 6 6 5 5 6 6 5 4 4 3 2 2 2 2 2 1 1 2 3 1 2 1 3 2 2 10 1 2 4 4 2 2 3
9 8 8 7 7 7 6 5 6 5 5 5 4 3 3 3 3 2 2 3 2 1 2 2 3 5 2 1 2 2 1 8 2 2 3 4 3 1
9 9 8 8 7 8 7 6 5 6 5 5 5 4 3 2 4 4 3 3 2 3 4 2 1 1 1 2 2 4 2 1 6 11 7 4 3 6
9 9 8 8 8 8 7 7 6 6 6 6 5 4 4 4 3 4 3 3 3 3 2 2 1 1 1 2 2 3 4 4 3 2 1 10 4 2
Wind_Direction
206 206 203 207 205 199 186 180 162 171 208 207 178 202 202 203 206 201 210 201 202 205 207 208 207 206 201 198 201 203 207 208 215 217 216 215 214 214
206 203 205 201 203 196 194 187 182 161 194 195 210 181 194 199 197 200 207 196 197 203 206 206 207 206 204 199 202 202 204 208 209 212 215 213 215 212
211 205 207 203 201 192 191 192 182 164 182 168 162 162 186 198 196 199 197 202 205 205 208 209 205 206 206 201 203 204 203 207 208 210 208 214 215 215
240 205 201 204 204 195 193 200 196 200 178 168 150 170 189 199 197 188 198 206 212 203 207 204 205 206 204 203 203 202 203 205 205 212 209 211 215 217
307 216 197 200 200 195 193 201 201 197 207 175 152 137 173 172 187 192 198 202 212 204 195 203 206 208 209 209 208 206 206 205 208 211 209 210 210 212
355 292 194 200 204 201 197 199 203 198 197 204 154 150 150 163 174 192 200 209 213 201 196 196 198 205 206 211 212 212 211 209 210 209 210 210 207 210
64 42 39 37 11 233 192 195 196 199 191 201 192 158 159 150 191 185 212 205 220 187 204 207 192 197 213 215 220 218 216 216 215 212 214 214 212 214
54 56 47 37 8 351 3 203 189 189 200 197 202 206 196 187 178 189 195 181 221 200 199 222 188 207 207 201 211 214 213 215 214 214 217 217 218 216
51 24 56 43 20 340 350 323 228 191 193 192 200 202 202 191 185 182 190 199 207 151 185 223 180 220 208 211 204 205 213 214 216 216 214 214 216 215
51 30 16 36 10 354 358 355 246 214 204 195 203 206 207 193 186 194 195 205 21 290 171 202 177 221 204 214 202 200 207 212 215 217 217 216 215 212
34 31 15 19 9 7 25 21 338 250 319 268 230 198 187 183 182 183 173 149 217 236 205 167 210 233 232 241 219 202 206 209 215 217 218 218 216 213
15 22 20 359 6 9 16 36 33 357 356 348 290 260 254 206 187 199 199 204 202 302 221 199 126 135 309 236 213 192 209 219 215 215 215 217 214 205
11 0 357 345 1 10 18 21 6 313 311 6 300 288 226 217 198 216 212 204 207 219 188 172 163 159 181 269 285 214 197 201 205 218 223 222 209 199
352 349 328 337 13 10 27 8 355 341 353 27 17 4 324 253 228 211 217 223 217 213 177 179 172 180 187 174 221 174 238 211 190 216 209 214 207 204
329 1 336 337 0 16 15 18 17 18 347 20 35 4 311 279 295 326 358 98 105 190 181 189 171 176 191 205 199 199 145 213 198 210 188 195 190 191
4 333 320 340 350 2 8 14 15 11 4 352 353 297 293 360 42 323 35 325 167 196 14 5 203 172 193 210 199 195 191 202 184 206 209 200 183 197
352 331 14 10 357 6 10 2 6 1 28 16 345 337 347 360 4 21 350 332 359 334 306 359 27 114 77 161 170 218 190 204 210 154 154 212 219 200
9 12 16 5 356 1 1 355 356 356 357 357 331 321 339 338 8 8 359 29 23 334 30 358 334 75 46 355 87 148 152 186 160 156 91 171 252 199
13 12 7 355 354 350 350 360 354 334 329 359 329 327 339 337 8 359 359 6 21 346 358 290 53 349 122 199 353 42 177 176 142 153 164 176 203 307
8 358 356 353 349 345 346 353 345 338 338 341 339 330 338 334 343 344 348 331 333 326 343 330 343 256 177 183 176 77 18 147 168 154 154 107 75 91
354 358 350 350 352 342 339 344 334 328 325 324 327 323 320 323 311 288 282 277 288 248 263 257 257 273 128 131 77 73 359 19 55 147 166 120 142 177
353 353 348 352 350 344 339 335 332 329 327 322 322 323 321 301 289 286 277 264 230 252 256 256 241 163 277 185 175 142 150 72 55 76 63 70 170 189
344 346 349 348 346 337 334 331 330 324 325 323 313 309 310 304 290 280 277 280 286 283 262 279 227 179 284 283 197 179 171 159 172 144 53 8 321 331